This is the latest recevied weather packets stored in our database for station/object K7SPS-10. If no packets are shown the sender has not sent any weather packets the latest 10 day(s).
| Time | Temp. | Humidity | Pressure | Rain* | Wind** | Luminosity | Snow |
|---|---|---|---|---|---|---|---|
| 1778300571 | 17.78° C | 39% | 1016.7 hPa | 0 mm | - | 0 W/m² | - |
| 1778300268 | 18.33° C | 38% | 1016.6 hPa | 0 mm | - | 0 W/m² | - |
| 1778299965 | 18.33° C | 38% | 1016.5 hPa | 0 mm | - | 0 W/m² | - |
| 1778299663 | 18.89° C | 37% | 1016.3 hPa | 0 mm | - | 0 W/m² | - |
| 1778299360 | 18.89° C | 36% | 1016.5 hPa | 0 mm | - | 0 W/m² | - |
| 1778299056 | 19.44° C | 36% | 1016 hPa | 0 mm | - | 0 W/m² | - |
| 1778298753 | 19.44° C | 35% | 1016.2 hPa | 0 mm | - | 0 W/m² | - |
| 1778298451 | 18.89° C | 36% | 1015.9 hPa | 0 mm | - | 0 W/m² | - |
| 1778298148 | 18.33° C | 38% | 1015.6 hPa | 0 mm | - | 0 W/m² | - |
| 1778297845 | 19.44° C | 36% | 1015.6 hPa | 0 mm | - | 0 W/m² | - |
| 1778297542 | 19.44° C | 36% | 1015.8 hPa | 0 mm | - | 0 W/m² | - |
| 1778297239 | 20° C | 35% | 1015.3 hPa | 0 mm | - | 0 W/m² | - |
| 1778296936 | 19.44° C | 35% | 1015.4 hPa | 0 mm | - | 0 W/m² | - |
| 1778296633 | 19.44° C | 37% | 1015.2 hPa | 0 mm | - | 0 W/m² | - |
| 1778296331 | 20.56° C | 33% | 1015 hPa | 0 mm | - | 0 W/m² | - |
| 1778296029 | 21.11° C | 32% | 1015.2 hPa | 0 mm | - | 1 W/m² | - |
| 1778295726 | 20.56° C | 32% | 1015 hPa | 0 mm | - | 2 W/m² | - |
| 1778295422 | 21.11° C | 34% | 1015 hPa | 0 mm | - | 4 W/m² | - |
| 1778295118 | 21.11° C | 34% | 1014.9 hPa | 0 mm | - | 6 W/m² | - |
| 1778294813 | 21.67° C | 34% | 1014.9 hPa | 0 mm | - | 8 W/m² | - |
| 1778294509 | 22.22° C | 34% | 1014.9 hPa | 0 mm | - | 11 W/m² | - |
| 1778294208 | 22.78° C | 32% | 1014.8 hPa | 0 mm | - | 15 W/m² | - |
| 1778293904 | 22.78° C | 32% | 1014.7 hPa | 0 mm | - | 19 W/m² | - |
| 1778293600 | 23.89° C | 31% | 1014.6 hPa | 0 mm | - | 22 W/m² | - |
| 1778293298 | 24.44° C | 27% | 1014.6 hPa | 0 mm | - | 26 W/m² | - |
* Rain latest hour (hover to see other rain measurements)
** Current wind speed in m/s (hover to see current wind gust speed)